Weather History for Alliance, NE

Change the Weather History Date:

Tuesday, October 11, 2011

  Actual Average Record
Temperature  
Mean Temperature 50 °F 48 °F  
Max Temperature 68 °F 64 °F 87 °F (1997)
Min Temperature 32 °F 31 °F 14 °F (1987)
Degree Days  
Heating Degree Days 15 17  
Month to date heating degree days 91 168  
Since 1 July heating degree days 292 413  
Cooling Degree Days 0 0  
Month to date cooling degree days 3 0  
Year to date cooling degree days 699 563  
Moisture  
Dew Point 37 °F    
Average Humidity 65    
Maximum Humidity 93    
Minimum Humidity 37    
Precipitation  
Precipitation 0.01 in 0.05 in 0.54 in (1973)
Month to date precipitation 2.25 0.50  
Year to date precipitation 19.06 14.30  
Sea Level Pressure  
Sea Level Pressure 29.76 in    
Wind  
Wind Speed 7 mph (SW)    
Max Wind Speed 26 mph    
Max Gust Speed 32 mph    
Visibility 10 miles    
Events Rain    
T = Trace of Precipitation, MM = Missing Value Source: NWS Daily Summary

Daily Weather History Graph

Daily Weather History Graph

Search for Another Location

Airport:

Trip Planner

Search our weather history database for the weather conditions in past years. The results will help you decide how hot, cold, wet, or windy it might be!

Date:

Astronomy

Oct. 11, 2011 Rise Set
Actual Time 6:58 AM MDT 6:16 PM MDT
Civil Twilight 6:30 AM MDT 6:44 PM MDT
Nautical Twilight 5:58 AM MDT 7:16 PM MDT
Astronomical Twilight 5:26 AM MDT 7:48 PM MDT
Moon 5:48 PM MDT (10/11) 6:39 AM MDT (10/11)
Length of Visible Light 12h 13m
Length of Day
11h 17m
Full, 100% of the Moon is Illuminated
Oct 11
Full
Oct 11
Full
Oct 19
Last Quarter
Oct 26
New
Nov 2
First Quarter

Hourly Weather History & Observations

Time (MDT) Temp. Windchill Dew Point Humidity Pressure Visibility Wind Dir Wind Speed Gust Speed Precip Events Conditions
12:53 AM 39.9 °F 37.8 °F 34.0 °F 79% 29.80 in 10.0 mi SSE 3.5 mph - N/A   Clear
1:53 AM 39.0 °F 36.8 °F 33.1 °F 79% 29.80 in 10.0 mi SE 3.5 mph - N/A   Clear
2:53 AM 37.9 °F - 34.0 °F 86% 29.80 in 10.0 mi Calm Calm - N/A   Clear
3:53 AM 33.1 °F 30.0 °F 30.9 °F 92% 29.80 in 10.0 mi South 3.5 mph - N/A   Clear
4:53 AM 34.0 °F 28.8 °F 30.9 °F 89% 29.79 in 10.0 mi SSE 5.8 mph - N/A   Partly Cloudy
5:53 AM 35.1 °F 30.1 °F 33.1 °F 92% 29.79 in 10.0 mi SSE 5.8 mph - N/A   Clear
6:53 AM 35.1 °F - 32.0 °F 89% 29.81 in 10.0 mi Calm Calm - N/A   Clear
7:53 AM 39.0 °F 34.8 °F 37.0 °F 93% 29.83 in 10.0 mi SSE 5.8 mph - N/A   Clear
8:53 AM 46.0 °F 44.8 °F 41.0 °F 83% 29.81 in 10.0 mi South 3.5 mph - N/A   Partly Cloudy
9:53 AM 55.4 °F - 39.2 °F 54% 29.80 in 10.0 mi WSW 8.1 mph - N/A   Clear
10:53 AM 60.1 °F - 37.9 °F 44% 29.75 in 10.0 mi West 20.7 mph 28.8 mph N/A   Mostly Cloudy
11:53 AM 60.1 °F - 37.9 °F 44% 29.76 in 10.0 mi West 19.6 mph 25.3 mph N/A   Scattered Clouds
12:53 PM 61.0 °F - 39.0 °F 44% 29.73 in 10.0 mi West 12.7 mph 23.0 mph N/A   Clear
1:53 PM 64.4 °F - 37.4 °F 37% 29.74 in 10.0 mi West 10.4 mph 19.6 mph N/A   Clear
2:53 PM 64.9 °F - 37.0 °F 36% 29.68 in 10.0 mi NNW 5.8 mph - N/A   Mostly Cloudy
3:53 PM 64.9 °F - 37.0 °F 36% 29.69 in 10.0 mi Calm Calm - N/A   Mostly Cloudy
4:53 PM 64.9 °F - 37.0 °F 36% 29.68 in 10.0 mi Calm Calm - N/A   Mostly Cloudy
5:53 PM 57.9 °F - 39.0 °F 49% 29.70 in 10.0 mi West 3.5 mph - N/A   Partly Cloudy
6:53 PM 48.2 °F - 39.2 °F 71% 29.74 in 10.0 mi WSW 6.9 mph - N/A   Partly Cloudy
7:53 PM 48.0 °F - 37.9 °F 68% 29.75 in 10.0 mi West 9.2 mph - N/A   Clear
8:53 PM 50.0 °F - 39.9 °F 68% 29.75 in 10.0 mi West 8.1 mph - N/A   Overcast
9:53 PM 55.9 °F - 41.0 °F 57% 29.73 in 9.0 mi NW 6.9 mph 20.7 mph 0.00 in Rain Light Rain
10:53 PM 50.0 °F - 46.0 °F 86% 29.75 in 10.0 mi West 8.1 mph - 0.01 in   Mostly Cloudy
11:53 PM 46.4 °F 41.9 °F 44.6 °F 93% 29.80 in 10.0 mi WSW 9.2 mph - N/A   Scattered Clouds